User: anonymous   Login
Location: Newark
(48.5667°N, 12.8167°E)
Time: 13:15:02
(UTC+00:00)
Language:

CUTE-I - Orbit

View from above orbital plane
View from above orbital plane
View from above satellite
View from above satellite

Ground track
Ground track

The orbit data is extracted from the following two-line orbital elements,

1 27844U 03031E   19321.89838713 +.00000043 +00000-0 +39312-4 0  9994
2 27844 098.6844 327.8396 0009083 315.1919 044.8525 14.22205751849887
Epoch (UTC): 17 November 2019 21:33:40
Eccentricity: 0.0009083
inclination: 98.6844°
perigee height: 811 km
apogee height: 824 km
right ascension of ascending node: 327.8396°
argument of perigee: 315.1919°
revolutions per day: 14.22205751
mean anomaly at epoch: 44.8525°
orbit number at epoch: 84988

The dashed part of the orbit path shows where the satellite is in the earth's shadow,  

DLR